Flag for French Polynesia Weather past 2 weeks in Papeete, Tahiti, French Polynesia

Now
77 °F

Overcast.


Feels Like: 79 °F
Forecast: 70 / 79 °F
Wind: 8 mph from Northeast

Location: Tahiti-Faaa

Current Time: Aug 29, 2014 at 6:13:18 AM

Latest Report: Aug 29, 2014 at 5:30 AM


Visibility: N/A

Pressure: 29.83 "Hg

Humidity: 69%

Dew point: 66 °F

Location of PapeeteLocation

Historic Weather in Papeete — Graph

°F

Papeete temperature yesterday

Maximum temperature yesterday: 82 °F (at 3:00 PM)
Minimum temperature yesterday: 70 °F (at 3:30 AM)
Average temperature yesterday: 76 °F

Past Weeks' High & Low Weather Summary

 TemperatureHumidityPressure
High86 °F (Aug 15, 11:00 AM)94% (Aug 15, 7:30 PM)30.04 "Hg (Aug 15, 7:30 PM)
Low70 °F (Aug 28, 3:30 AM)58% (Aug 16, 12:30 PM)29.80 "Hg (Aug 29, 2:30 AM)
Average78 °F72%29.95 "Hg
* Reported Aug 14 5:00 AM — Aug 29 5:00 AM, Papeete, Weather by CustomWeather, © 2014

Note: Actual official high and low records may vary slightly from our data, if they occured in-between our weather recording intervals... More about our weather records

Advertising

Papeete weather history for previous 24 hours

 ConditionsComfort  
Time TempWeatherWind HumidityBarometerVisibility
5:00 AM
Aug 29
77 °FOvercast.8 mph69%29.80 "HgN/A
4:30 AM75 °FPassing clouds.7 mph74%29.80 "HgN/A
4:00 AM75 °FOvercast.6 mph74%29.80 "HgN/A
3:30 AM75 °FOvercast.6 mph74%29.80 "HgN/A
3:00 AM77 °FScattered showers. Passing clouds.6 mph69%29.80 "HgN/A
2:30 AM75 °FScattered showers. Passing clouds.7 mph69%29.80 "HgN/A
2:00 AM73 °FScattered showers. Passing clouds.5 mph78%29.83 "HgN/A
1:30 AM73 °FScattered showers. Partly cloudy.8 mph83%29.83 "HgN/A
1:00 AM73 °FSprinkles. Partly cloudy.9 mph89%29.86 "Hg6 mi
12:30 AM73 °FSprinkles. Passing clouds.12 mph83%29.86 "Hg3 mi
12:00 AM73 °FPassing clouds.No wind83%29.86 "HgN/A
11:30 PM
Aug 28
73 °FPassing clouds.1 mph83%29.86 "HgN/A
11:00 PM73 °FPassing clouds.No wind78%29.86 "HgN/A
10:30 PM73 °FPassing clouds.1 mph78%29.86 "HgN/A
10:00 PM73 °FPassing clouds.3 mph78%29.89 "HgN/A
9:30 PM73 °FPassing clouds.3 mph78%29.86 "HgN/A
9:00 PM75 °FPassing clouds.5 mph74%29.89 "HgN/A
8:30 PM75 °FPassing clouds.6 mph78%29.89 "HgN/A
8:00 PM75 °FPassing clouds.6 mph78%29.86 "HgN/A
7:30 PM75 °FPassing clouds.5 mph78%29.86 "HgN/A
7:00 PM77 °FPassing clouds.6 mph74%29.86 "HgN/A
6:30 PM77 °FPassing clouds.9 mph79%29.86 "HgN/A
6:00 PM79 °FScattered showers. Passing clouds.5 mph65%29.86 "HgN/A
5:30 PM79 °FScattered showers. Scattered clouds.9 mph70%29.86 "HgN/A
5:00 PM81 °FScattered showers. Scattered clouds.10 mph66%29.86 "HgN/A
4:30 PM81 °FScattered showers. Scattered clouds.12 mph66%29.86 "HgN/A
4:00 PM81 °FScattered showers. Scattered clouds.12 mph66%29.86 "HgN/A
3:30 PM79 °FScattered showers. Partly sunny.7 mph74%29.86 "HgN/A
3:00 PM82 °FPartly sunny.3 mph66%29.86 "HgN/A
2:30 PM81 °FScattered clouds.10 mph66%29.86 "HgN/A
2:00 PM81 °FPartly sunny.14 mph70%29.89 "HgN/A
1:30 PM81 °FPartly sunny.13 mph70%29.89 "HgN/A
1:00 PM79 °FPartly sunny.17 mph74%29.89 "HgN/A
12:30 PM81 °FPartly sunny.15 mph70%29.92 "HgN/A
12:00 PM81 °FPartly sunny.13 mph70%29.92 "HgN/A
11:30 AM81 °FPartly sunny.13 mph70%29.95 "HgN/A
11:00 AM79 °FPartly sunny.16 mph74%29.95 "HgN/A
10:30 AM81 °FPartly sunny.15 mph70%29.95 "HgN/A
10:00 AM79 °FScattered clouds.16 mph74%29.98 "HgN/A
9:30 AM79 °FScattered clouds.6 mph74%29.98 "HgN/A
9:00 AM79 °FScattered clouds.5 mph74%29.98 "HgN/A
8:30 AM77 °FScattered clouds.5 mph79%29.95 "HgN/A
8:00 AM77 °FScattered clouds.7 mph74%29.95 "HgN/A
7:30 AM73 °FScattered showers. Partly sunny.7 mph89%29.95 "HgN/A
7:00 AM73 °FScattered showers. Partly sunny.8 mph89%29.95 "HgN/A
6:30 AM72 °FScattered showers. Partly sunny.9 mph94%29.92 "HgN/A
6:00 AM72 °FScattered showers. Passing clouds.8 mph88%29.92 "HgN/A
Weather by CustomWeather, © 2014

See weather overviewHow to use our weather pages